Location: Babice
(50.3480°N, 22.9363°E)
Time: 12:06:34
(UTC+00:00)

Landsat 5 - Pass Details

Date: 14 July 2020
Orbit: 529 x 654 km, 98.2° (Epoch: 07 August)

Event Time Altitude Azimuth Distance (km) Brightness Sun altitude
Rises 01:32:03 0° 154° (SSE) 2,711 6.6 -8.0°
Reaches altitude 10° 01:34:12 10° 151° (SSE) 1,808 5.8 -7.8°
Maximum altitude 01:38:02 59° 72° (ENE) 627 4.0 -7.4°
Drops below altitude 10° 01:41:49 10° 353° (N) 1,791 6.5 -7.0°
Sets 01:43:56 0° 349° (N) 2,684 7.4 -6.7°
